Location: Dillon
(41.1766°N, 107.0923°W)
Time: 13:08:29
(UTC+00:00)

FALCONSAT 3 - Pass Details

Date: 04 July 2022
Orbit: 393 x 398 km, 35.4° (Epoch: 14 August)

Event Time Altitude Azimuth Distance (km) Brightness Sun altitude
Rises 03:58:17 0° 251° (WSW) 2,332 ? -11.7°
Reaches altitude 10° 04:00:33 10° 240° (WSW) 1,468 ? -12.0°
Maximum altitude 04:03:31 29° 177° (S) 769 ? -12.4°
Enters shadow 04:04:43 23° 139° (SE) 920 ? -12.5°
